Probability
0 0 0 0 0 0 0 0 0 0 0 1 4 10 18 24 22 19 19 17 12 9 7 8 9 10 10 8 6 6 8 10 12 13 16 21 23 23 22 20 19 18 18 19
0 0 0 0 0 0 0 0 0 0 0 2 5 10 17 21 20 19 19 16 12 9 7 6 7 8 8 7 6 5 6 8 10 11 15 19 21 22 21 20 18 16 16 17
0 0 0 0 0 0 0 0 0 0 0 2 5 9 16 19 20 19 17 14 12 9 6 4 4 4 5 5 4 3 2 3 5 8 11 16 18 17 17 17 15 14 15 17
0 0 0 0 0 0 0 0 0 0 0 1 2 5 12 20 23 20 16 14 12 8 5 3 2 2 2 2 2 1 1 0 2 4 7 11 12 12 12 12 11 11 13 15
0 0 0 0 0 0 0 0 0 0 0 0 0 1 7 16 22 20 18 16 13 9 5 3 3 3 2 2 2 2 2 1 1 1 3 5 6 7 8 9 7 6 7 9
0 0 0 0 0 0 0 0 0 0 0 0 0 0 2 9 16 18 18 16 13 10 8 6 4 3 2 2 2 2 2 1 0 0 0 1 2 3 4 5 4 3 4 5
0 0 0 0 0 0 0 0 0 0 0 0 0 0 0 4 10 15 16 14 12 9 7 5 3 1 1 0 1 1 1 1 0 0 0 0 1 1 1 1 1 1 3 3
0 0 0 0 0 0 0 0 0 0 0 0 0 0 0 3 9 12 13 11 9 6 3 2 1 0 0 0 0 0 0 0 0 0 0 0 0 0 0 0 0 0 1 1
0 0 0 0 0 0 0 0 0 0 0 0 0 0 1 4 6 7 8 7 5 3 1 0 0 0 0 0 0 0 0 0 0 0 0 0 0 0 0 0 0 0 0 0
0 0 0 0 0 0 0 0 0 0 0 0 0 0 1 2 3 3 3 2 1 1 0 0 0 0 0 0 0 0 0 0 1 1 1 0 0 0 0 0 0 0 0 0
0 0 0 0 0 0 0 0 0 0 0 0 0 0 0 1 1 0 0 0 0 0 0 0 0 0 0 0 0 0 0 1 2 2 1 0 0 0 0 0 0 0 0 0
0 0 0 0 0 0 0 0 0 0 0 0 0 0 0 0 0 0 0 0 0 0 0 0 0 0 0 0 0 0 0 1 2 2 1 0 0 0 0 0 0 0 0 0
0 0 0 0 0 0 0 0 0 0 0 0 0 0 0 0 0 1 0 0 0 0 0 0 0 0 0 0 0 0 0 1 1 1 1 0 0 0 0 0 0 0 0 0
0 0 0 0 0 0 0 0 0 0 0 0 0 0 0 0 0 0 0 0 0 0 0 0 0 0 0 0 0 0 0 0 0 0 0 0 0 0 0 0 0 0 0 0
0 0 0 0 0 0 0 0 0 0 0 0 0 0 0 0 0 0 0 0 0 0 0 0 0 0 0 0 0 0 0 0 0 0 0 0 0 0 0 0 0 0 0 0
0 0 0 0 0 0 0 1 1 0 0 0 0 0 0 0 0 0 0 0 0 0 0 0 0 0 0 0 0 0 0 0 0 0 0 0 0 0 0 0 0 0 0 0
0 0 0 0 0 0 0 1 1 0 0 0 0 0 0 0 0 0 0 0 0 0 0 0 0 0 0 0 0 0 0 0 0 0 0 0 0 0 0 0 0 0 0 0
0 0 0 0 0 0 0 0 0 0 0 0 0 0 0 0 0 0 0 0 0 0 0 0 0 0 0 0 0 0 0 0 0 0 0 0 0 0 0 0 0 0 0 0
0 0 0 0 0 0 0 0 0 0 1 1 1 1 1 1 0 0 0 0 0 0 0 0 0 0 0 0 0 0 0 0 0 0 0 0 0 0 0 0 0 0 0 0
0 0 0 0 0 0 0 0 0 0 1 1 1 1 2 1 0 0 0 0 0 0 0 0 0 0 0 0 0 0 0 0 0 0 0 0 0 0 0 0 0 0 0 0
0 0 0 0 0 0 0 0 0 0 0 0 0 1 2 2 1 0 0 0 0 0 0 0 0 0 0 0 0 0 0 0 0 0 0 0 0 0 0 0 0 0 0 0
0 0 0 0 0 0 0 0 0 0 0 0 0 0 1 1 1 0 0 0 0 0 0 0 0 0 0 0 0 0 0 0 0 0 0 0 0 0 0 0 0 0 0 0
0 0 0 0 0 0 0 0 0 0 0 0 0 0 0 1 1 0 0 0 0 0 0 0 0 0 0 0 0 0 0 0 0 0 0 0 0 0 0 0 0 0 0 0
0 0 0 0 0 0 0 0 0 0 0 0 0 0 0 0 0 0 0 0 0 0 0 0 0 0 0 0 0 0 0 0 0 0 0 0 0 0 0 0 0 0 0 0
0 0 0 0 0 0 0 0 0 0 0 0 0 0 0 0 0 0 0 0 0 0 0 0 0 0 0 0 0 0 0 0 0 0 0 0 0 0 0 0 0 0 0 0
0 0 0 0 0 0 0 0 0 0 0 0 0 0 0 0 0 0 0 0 0 0 0 0 0 0 0 0 0 0 0 0 0 0 0 0 0 0 0 0 0 0 0 0
Wind_Speed
2 2 3 7 6 6 4 5 8 9 6 4 7 7 8 9 11 12 12 12 12 10 6 5 5 6 7 6 4 2 3 3 2 0 0 1 1 1 0 0 1 2 2 2
3 5 11 8 7 5 6 6 7 7 4 4 6 6 7 8 10 13 14 13 12 10 8 6 6 6 7 6 4 4 4 4 3 1 1 0 1 1 1 1 1 1 2 2
6 9 7 6 7 6 6 4 4 3 3 4 7 5 5 4 8 9 10 12 12 12 10 8 6 6 6 5 4 4 4 4 4 4 3 3 2 2 2 2 2 2 1 1
6 8 6 5 6 4 5 4 1 1 4 1 4 3 1 4 6 7 7 8 10 10 9 7 7 6 6 5 4 5 4 5 5 4 4 3 2 1 1 1 1 2 2 2
6 4 3 3 6 3 5 2 1 1 3 3 5 4 2 4 6 6 7 9 9 9 9 8 8 7 6 5 5 4 5 5 5 5 4 3 2 1 1 1 2 2 2 3
7 5 3 4 4 3 2 5 6 6 6 3 2 3 3 3 6 8 9 10 10 10 10 9 8 7 6 5 5 5 5 5 5 5 4 4 3 3 3 3 2 2 2 2
6 6 4 1 2 4 4 7 5 6 5 2 2 2 2 4 3 8 11 10 10 10 10 9 8 7 6 6 5 5 6 5 5 5 5 4 3 3 3 2 2 2 2 2
1 5 4 2 2 2 1 8 7 3 2 3 3 1 3 4 1 7 10 11 11 10 8 8 7 7 6 6 5 5 5 5 5 5 4 4 4 3 2 2 2 2 1 1
2 5 5 3 2 4 2 3 7 7 3 1 2 2 2 3 7 8 10 11 10 9 9 8 7 7 6 6 5 4 4 5 5 4 4 5 4 4 3 3 3 2 2 2
4 2 5 5 4 4 3 5 6 6 5 1 2 2 3 2 5 6 8 9 9 9 8 8 7 6 6 5 4 5 5 4 4 4 4 4 4 4 3 3 4 3 3 3
3 2 5 4 2 2 2 2 5 4 5 6 3 5 5 7 7 8 8 8 10 9 8 7 6 6 5 4 4 4 5 4 4 4 4 4 4 4 4 4 3 3 3 3
2 4 1 4 4 1 2 2 5 4 2 4 4 5 2 5 6 7 8 9 10 9 8 7 6 6 5 4 4 4 4 4 4 3 4 4 4 4 4 4 4 4 4 4
3 5 3 6 7 5 3 1 3 5 4 3 4 5 0 4 6 7 10 11 10 10 9 7 6 6 4 4 3 3 4 3 3 3 4 4 4 4 4 4 5 4 4 5
4 4 5 4 5 3 3 3 1 4 3 2 4 5 3 5 7 8 10 11 11 9 9 8 6 5 4 4 3 3 3 3 3 3 4 4 4 4 4 4 5 5 5 5
5 2 1 2 3 1 1 3 3 2 4 5 5 6 7 8 9 10 11 11 11 10 9 8 6 5 4 3 3 3 2 2 3 3 4 3 3 4 4 5 5 5 6 7
4 2 2 3 2 3 5 7 4 3 2 4 5 2 2 7 8 9 10 11 11 10 9 8 6 5 4 3 2 2 2 2 2 3 3 3 3 4 4 5 5 6 7 7
2 3 3 2 4 3 4 6 5 4 2 2 4 4 8 9 10 10 10 10 10 9 8 7 5 4 3 3 3 2 2 2 3 3 3 3 3 4 4 5 6 6 6 7
3 2 2 1 4 2 1 1 4 6 5 4 5 8 8 8 6 5 7 9 9 8 7 6 5 4 3 3 3 3 3 3 4 4 4 4 4 5 5 5 6 6 5 6
5 4 2 2 1 0 2 3 1 3 2 2 7 9 9 10 8 4 4 7 8 7 6 5 5 4 3 3 3 4 4 4 4 4 4 4 4 4 5 5 5 4 5 6
4 4 3 1 2 1 3 5 2 4 1 1 7 10 10 8 5 4 5 8 9 7 6 6 5 4 4 3 4 5 4 4 4 3 3 4 4 4 4 4 4 4 4 5
3 2 2 1 1 1 3 5 3 2 3 2 6 8 8 4 4 8 9 8 8 8 7 6 6 4 3 3 4 4 4 3 3 3 4 4 4 4 4 4 4 4 5 5
2 2 1 2 1 2 4 3 2 3 1 4 6 5 6 9 11 11 10 9 9 8 7 6 5 4 3 4 5 5 4 3 4 5 5 5 4 4 4 5 4 4 5 5
2 2 3 3 3 3 1 2 2 4 5 4 5 7 12 11 11 10 9 9 8 7 6 5 5 4 3 3 4 5 3 3 4 5 5 5 5 5 4 5 5 4 4 4
3 1 3 3 1 1 3 4 4 5 6 6 9 10 11 11 10 9 8 7 7 6 6 5 6 5 4 3 4 4 4 4 5 5 4 4 5 5 5 4 3 3 3 3
2 1 3 2 1 3 3 3 5 7 9 10 9 9 10 11 10 9 8 7 7 6 5 5 5 5 4 4 4 4 4 5 5 4 4 4 4 4 5 4 4 3 2 1
1 2 3 3 5 4 2 3 7 9 9 10 10 9 8 9 9 8 7 6 6 6 6 5 5 5 5 4 4 4 4 4 5 4 3 3 3 3 3 4 4 7 5 4
Wind_Direction
275 74 251 243 223 215 246 273 277 272 258 170 174 165 161 153 141 138 136 138 133 128 123 122 125 111 100 83 77 72 59 34 47 62 102 105 89 57 23 110 157 172 186 180
9 262 243 246 261 261 267 268 276 295 291 154 151 137 151 152 150 147 145 143 138 130 124 114 106 100 97 95 74 59 46 35 26 2 341 89 104 106 71 32 43 136 150 155
214 247 249 246 257 265 276 249 256 277 0 70 104 76 106 116 115 129 140 139 138 141 141 130 111 95 88 81 70 65 45 34 26 24 31 35 41 32 28 12 358 346 21 93
246 255 261 254 246 226 265 259 228 43 71 18 93 124 182 142 122 133 139 137 142 139 137 127 116 103 91 81 70 62 49 34 26 33 50 64 62 54 342 308 345 353 17 32
272 279 273 251 245 212 230 243 44 66 104 59 32 103 259 147 144 161 156 147 143 137 133 124 116 108 93 80 69 57 52 43 32 33 41 56 52 39 355 356 20 14 15 25
265 276 239 230 250 224 185 49 32 48 70 60 306 128 245 219 187 169 158 149 144 132 121 111 105 98 87 73 63 54 52 40 34 39 39 47 47 43 40 28 22 13 11 15
323 316 308 310 341 341 75 74 33 13 27 258 291 104 244 285 227 170 154 143 133 124 117 114 109 98 88 74 61 50 50 38 32 38 36 35 40 49 47 33 34 29 14 6
337 306 305 307 209 211 161 128 147 171 199 289 1 15 285 314 105 133 131 128 122 117 114 112 108 103 94 80 65 54 46 38 36 41 34 29 32 39 33 32 42 35 15 355
177 276 299 302 272 147 118 127 155 127 121 73 325 308 324 41 81 104 118 120 119 118 114 108 100 94 85 75 63 55 49 42 37 36 32 32 31 37 36 37 42 33 11 7
156 267 305 318 19 22 137 146 92 106 133 163 281 262 233 205 153 142 134 130 121 119 110 101 92 89 82 74 61 52 50 45 36 32 29 35 30 35 43 51 45 35 19 14
121 115 321 10 36 304 12 57 97 109 142 149 206 258 218 195 176 162 144 135 128 121 115 105 96 88 81 69 57 49 44 42 36 32 32 33 29 30 38 45 36 31 23 23
119 114 288 275 268 238 161 162 132 136 192 160 159 255 264 168 162 150 136 127 122 119 113 110 103 95 85 74 61 49 42 43 35 35 40 35 30 36 41 39 34 33 36 34
111 100 48 348 344 359 35 360 119 128 121 143 157 246 38 135 138 138 136 133 128 121 118 115 106 101 97 84 67 52 43 46 42 45 49 42 38 44 43 39 36 37 43 43
99 99 144 191 235 266 320 331 40 107 125 172 199 196 187 162 152 147 139 134 129 126 125 120 113 108 102 91 82 65 49 47 51 51 56 52 47 51 47 43 43 45 49 51
67 95 200 236 265 326 350 341 17 79 167 174 195 183 198 179 161 151 143 137 133 134 131 128 125 121 113 104 93 82 69 61 62 61 58 51 52 57 56 53 48 48 53 53
43 54 16 345 338 35 32 13 24 44 83 131 132 146 163 130 126 137 143 143 142 140 136 132 128 121 116 112 107 98 86 79 75 73 66 57 61 64 60 57 55 56 54 52
23 58 49 329 329 43 30 1 24 50 23 154 168 171 138 131 144 152 150 146 145 141 136 134 130 124 120 119 118 115 102 88 80 75 70 64 69 73 68 70 65 60 58 58
144 86 101 8 28 77 251 338 68 77 37 55 100 126 136 132 126 128 140 139 138 138 134 131 127 122 118 113 105 100 93 89 85 76 69 65 74 78 75 72 68 61 59 59
152 132 101 98 99 257 327 347 27 92 36 90 118 122 116 110 90 80 115 129 134 133 133 130 128 126 121 114 108 102 89 84 83 77 72 70 82 87 83 79 72 66 67 61
96 104 108 104 113 203 273 311 329 104 77 204 136 140 145 136 137 168 143 125 119 118 121 123 120 115 118 120 110 105 97 90 86 84 81 76 82 89 89 87 78 71 75 71
52 56 106 133 145 267 297 314 26 115 230 182 142 150 155 162 155 139 131 122 123 124 125 122 119 118 128 125 113 106 102 99 98 90 83 78 79 84 91 84 74 79 77 70
127 114 111 115 119 260 316 25 93 196 162 122 126 134 121 113 114 122 126 126 128 127 126 124 122 121 118 117 115 111 107 99 93 89 83 76 65 72 84 85 75 71 77 74
69 173 161 158 193 242 329 106 131 129 117 120 121 126 126 125 130 132 131 132 132 133 130 127 129 124 112 112 119 122 119 105 96 89 83 75 69 60 63 73 77 69 68 76
339 57 97 84 74 77 70 84 83 97 115 120 128 132 132 133 136 134 136 137 136 135 134 133 130 126 122 119 119 126 123 113 104 98 90 80 78 65 54 54 60 72 73 77
298 48 81 86 113 70 48 90 106 105 109 115 123 128 136 136 137 139 141 142 140 137 135 136 137 134 135 134 129 130 126 117 109 102 96 89 86 86 73 61 51 63 57 134
278 158 150 200 201 157 176 150 125 120 125 129 126 122 129 136 138 137 139 140 140 140 137 135 135 137 144 145 137 135 134 130 122 115 110 105 105 98 95 91 62 40 49 57